Regional Weather Roundup
Issued by NWS Wakefield, VA

Home | Current Version | Previous Version | Text Only | Print | Product List | Glossary Off
Versions: 1 2 3 4 5 6 7 8 9 10 11 12 13 14 15 16 17 18 19 20 21 22 23 24 25 26 27 28 29 30 31 32 33 34 35 36 37 38 39 40 41 42 43 44 45 46 47 48 49 50

000
ASUS41 KAKQ 031215
RWRAKQ

REGIONAL WEATHER ROUNDUP
NATIONAL WEATHER SERVICE WAKEFIELD VA
800 AM EDT FRI JUL 03 2015

Note: "fair" indicates few or no clouds below 12,000 feet with no
significant weather and/or obstructions to visibility. * = Denotes
station may not report precipitation (e.g., rain,snow,etc.),
thunder or fog.

VAZ042-051-052>054-056-031300-
NORTHERN VIRGINIA

CITY           SKY/WX    TMP DP  RH WIND       PRES   REMARKS
WASH NATIONAL  CLOUDY    69  65  86 CALM      29.97S FOG
DULLES         CLOUDY    65  63  93 CALM      29.98R FOG
FORT BELVOIR   CLOUDY    65  64  96 CALM      29.97R
QUANTICO       CLOUDY    67  63  87 W5        29.98R
FREDERICKSBRG* CLOUDY    67  67 100 CALM      29.97R
STAFFORD*      CLOUDY    63  62  96 CALM      30.01S FOG
WARRENTON      CLOUDY    63  63 100 CALM      29.97R FOG
CULPEPER*      CLOUDY    61  61 100 CALM      29.99R FOG
MANASSAS*      FOG       63  63 100 CALM      29.98R VSB 1/4
LEESBURG*      CLOUDY    64  64 100 CALM      29.99R FOG
WINCHESTER     PTSUNNY   64  63  94 CALM      29.99R FOG
FRONT ROYAL*   CLOUDY    61  61 100 CALM      29.97S VSB 1/2
LURAY*         FOG       63  63 100 CALM      29.99R VSB<1/4
$$

VAZ048-049-060>072-079>083-031300-
CENTRAL AND SOUTH CENTRAL VIRGINIA

CITY           SKY/WX    TMP DP  RH WIND       PRES   REMARKS
RICHMOND       CLOUDY    72  66  81 CALM      29.97R
CHESTERFIELD*  NOT AVBL
PETERSBURG*    MOSUNNY   72  72 100 CALM      29.98S FOG
HANOVER        PTSUNNY   68  65  90 CALM      29.99R FOG
TAPPAHANNOCK*  FOG       67  64  90 CALM      29.98R VSB 1/2
QUINTON*       FAIR      69  67  92 CALM      29.97R
CHARLOTTSVILLE CLOUDY    66  63  90 S3        29.98R FOG
GORDONSVILLE*  FAIR      64  63  94 CALM      29.97S FOG
ORANGE*        CLOUDY    64  63  94 CALM      29.99R FOG
LOUISA*        CLOUDY    66  66 100 CALM      29.97R FOG
BUMPASS*       FAIR      66  64  95 CALM      29.98R
FARMVILLE*     CLOUDY    68  68 100 CALM      29.97R FOG
CREWE*         CLOUDY    68  66  94 CALM      29.98R
FORT PICKETT*  FAIR      69  68  94 E3        29.98R
CHASE CITY*    CLOUDY    70  69  98 CALM      29.98R
CLARKSVILLE*   CLOUDY    70  64  83 E3        29.98R
SOUTH HILL*    CLOUDY    67  66  95 CALM      30.04R
LAWRENCEVILLE* NOT AVBL
EMPORIA*         N/A     68  68 100 CALM      29.99R FOG
$$

VAZ088>098-031300-
SOUTHEAST VIRGINIA

CITY           SKY/WX    TMP DP  RH WIND       PRES   REMARKS
NORFOLK        SUNNY     74  63  68 NE7       29.96S
VIRGINIA BEACH MOSUNNY   75  67  76 NE5       29.96R
NORFOLK NAVAL  MOSUNNY   74  63  68 NE8       29.98R
WEST POINT*    SUNNY     72  69  90 CALM      29.98R
SALUDA*        FAIR      71  67  87 NW3       29.96R
NEWPORT NEWS   SUNNY     73  68  84 NE3       29.97R HAZE
LANGLEY AFB    MOSUNNY   73  68  83 E8        29.95R
FORT EUSTIS    SUNNY     73  73 100 NE3       29.95S
WILLIAMSBURG*    N/A     72  72 100 CALM      29.98R
HR EXEC AP*    FAIR      72  70  94 CALM      29.99R
FRANKLIN*      MOSUNNY   70  68  95 CALM      29.97S FOG
WAKEFIELD      MOSUNNY   72  68  87 CALM      29.97S FOG
$$

VAZ020-022-025-037-045-031300-
WEST CENTRAL AND SOUTHWEST VIRGINIA

CITY           SKY/WX    TMP DP  RH WIND       PRES   REMARKS
STAUNTON*      CLOUDY    65  64  95 CALM      30.02R FOG
WAYNESBORO*    CLOUDY    62  62 100 CALM      30.01R VSB 1/2
HOT SPRINGS VA HVY RAIN  61  61 100 E3        30.05S VSB<1/4
LYNCHBURG      CLOUDY    67  65  93 CALM      30.00R
DANVILLE       CLOUDY    69  67  93 E5        29.97S FOG
SOUTH BOSTON*  CLOUDY    68  66  95 MISG      29.97R
MARTINSVILLE   CLOUDY    70  70 100 CALM      30.00R FOG
ROANOKE        CLOUDY    68  66  93 SE9       30.00R FOG
BLACKSBURG     CLOUDY    65  65  99 E3        30.04S FOG
DUBLIN*        RAIN      65  65 100 CALM      30.02R
MARION*        LGT RAIN  65  64  95 E3        30.03S
HILLSVILLE*    LGT RAIN  64  64  99 S3        30.02R
RICHLANDS*     CLOUDY    65  65 100 CALM      30.00R FOG
WISE*          CLOUDY    68  68 100 CALM      30.00S
ABINGDON*      CLOUDY    69  69 100 CALM      29.99R
$$

MDZ021>025-VAZ099-100-031300-
SOUTHERN MARYLAND AND THE DELMARVA PENINSULA

CITY           SKY/WX    TMP DP  RH WIND       PRES   REMARKS
PATUXENT RIVER CLOUDY    70  67  90 NW3       29.96R
BAY BRIDGE APT   N/A     70  68  94 CALM      29.97R FOG
LEONARDTOWN    CLOUDY    68  64  88 CALM      29.98S
DOVER          PTSUNNY   68  68 100 N3        29.94R
GEORGETOWN     CLOUDY    67  65  93 CALM      29.97R FOG
EASTON         MOSUNNY   68  68 100 CALM      30.00R FOG
CAMBRIDGE        N/A     66  64  94 CALM      29.96S
SALISBURY      CLOUDY    68  66  93 CALM      29.97R FOG
OCEAN CITY     PTSUNNY   68  66  93 N3        29.96R FOG
WALLOPS ISLAND PTSUNNY   69  67  93 N3        29.97R FOG
ACCOMACK*      MOSUNNY   70  68  94 NE5       29.96R FOG
$$

NCZ012>017-030>032-031300-
NORTH CENTRAL AND EASTERN NORTH CAROLINA

CITY           SKY/WX    TMP DP  RH WIND       PRES   REMARKS
ROANOKE RAPIDS FAIR      70  68  94 E3        29.97S FOG
RALEIGH        CLOUDY    72  70  93 SE3       29.97S FOG
ELIZABETH CITY CLOUDY    74  70  87 NE5       29.97R
AHOSKIE*       MOSUNNY   70  67  90 CALM      29.98R FOG
EDENTON*       CLOUDY    71  70  96 N3        29.97R FOG
CURRITUCK*     CLOUDY    74  65  74 N5        29.97R
KILL DEVIL HLS CLOUDY    73  72  95 CALM      29.95R FOG
MANTEO         DRIZZLE   73  71  95 NE5       29.96R
CAPE HATTERAS  MOSUNNY   75  68  78 W13       29.98R
TARBORO*         N/A     73  71  93 CALM      29.98R FOG
GOLDSBORO      CLOUDY    72  70  92 SW2       29.96R
WASHINGTON     MOSUNNY   72  70  93 CALM      29.98R
GREENVILLE     CLOUDY    72  72 100 CALM      29.99R
NEW BERN       CLOUDY    73  68  84 SW7       30.00R
WILMINGTON     CLOUDY    75  69  81 W8        29.99R
$$

VAZ048-031300-
ELSEWHERE

CITY           SKY/WX    TMP DP  RH WIND       PRES   REMARKS
HARRISBURG PA  SUNNY     66  59  78 CALM      29.98R
BALTIMORE      CLOUDY    67  63  87 CALM      29.96R FOG
ANNAPOLIS      CLOUDY    70  65  84 N3        29.96R HAZE
ANDREWS AFB    CLOUDY    66  66 100 CALM      29.96R
PHILADELPHIA   PTSUNNY   71  58  63 NE7       29.97R
HENDERSON NC   CLOUDY    69  67  94 E6        29.98R FOG
GREENSBORO     CLOUDY    71  69  93 SE7       29.96S
ROCKY MOUNT    CLOUDY    73  70  90 CALM      29.97R FOG
$$

VAZ100-031300-
MARINE

STATION/POSITION TIME  TEMP    WIND        PRES    WAVE   SWELL
                       AIR SEA DIR/SP/G            HT/PER HT/PER
                 (UTC) (F)     (DEG/KT/KT) (MB)    (FT/S) (FT/S)
BRANDYWINE LGT   1100   71 73   60/  5/  6 1014.2R
CAPE MAY NJ      1100   68 75   70/  2/  2 1013.6R
LEWES DE         1100   69 71  240/  1/  2 1013.9R
15NM E FENWICK I 1150   71 73              1013.8R   3/ 7
OCEAN-CITY-INLET 1100   68 73  360/  5/  5 1013.8R
WACHAPREAGUE VA  1100   68 78  340/  2/  4 1014.4R
THOMAS POINT MD  1100   70 76  350/  5/  5 1014.6R
GOOSES REEF MD   1200   73 77   50/  4/  6 1015.7R
COVE POINT MD    1100   70     260/  3/  4 1014.9R
SOLOMONS ISLAND  1100      79                N/A
BISHOPS HEAD MD  1100   71      40/  5/  6 1014.1R
PINEY POINT MD   1148           40/  4/  5   N/A
CAMBRIDGE MD     1100   70 78   50/  3/  3 1014.0R
LEWISETTA VA     1100   70 79  270/  3/  4 1014.2R
RAPPAHANNOCK LGT 1100           50/ 10/ 11 1014.6R
STINGRAY PT      1200   75 80   60/  6/  8 1014.5R   1/ 2
YORK RVR RNG VA  1100   73      10/  7/  9 1013.7R
YORKTOWN VA      1100   71 79  350/  8/  9 1014.1R
JAMESTOWN VA     1200   71 82   30/  4/  4   N/A
DOMINION TERM VA 1100   72     360/  4/  5 1014.4R
KIPTOPEKE VA     1100      81   30/  3/  5   N/A
CHES BAY BRIDGE  1100   73 77   30/  9/ 11 1014.0R
CAPE HENRY VA    1100   71      40/  8/  9 1012.8R
CHESAPEAKE LGHT  1100   72      30/ 10/ 12 1014.9R
WILLOUBY STN VA  1100   73      50/  8/  9 1015.3R
CAPE HENRY BUOY  1128      78                N/A     3/ 7
1ST LANDING BUOY 1200      77              1014.5R   2/ 4
CAPE CHARLES BUO 1126      76                N/A     3/ 8   2/ 8
OFFSHORE WE BUOY 1111      78                N/A     4/ 7   3/ 7
64NM E OF VA BCH 1150   74 77   40/ 12/ 14 1013.9R   5/ 8   3/ 8
DUCK PIER NC     1100   73 69  350/ 10/ 11 1012.9R
44100 DUCK FRF   1124      77                N/A     3/ 7
44056 DUCK FRF   1111      70                N/A     2/ 8
OREGON INLET NC  1100   75 81  270/  8/ 11 1013.8R
HATTERAS NC      1100   75 78  230/ 11/ 15 1013.9R
DIAMOND SHLS NC  1150   78 83  270/ 16/ 17 1014.7R   6/ 8   3/ 8
CAPE LOOKOUT NC  1200   76     250/ 15/ 18 1015.2R
$$


USA.gov is the U.S. government's official web portal to all federal, state and local government web resources and services.